Theta_e
326 327 328 329 329 329 329 329 330 330 330 330 330 329 329 329 329 329 330 330 330 330 330 330 330 330 329 328 328 327 327 326 324 323 323 323 322 322 322 321 319 317 316 314 312 311 308 306 304 300 295 292 292 292 291 291 290 290 290 290 290 290 289 289 290 290 290 289 288 288 288 287 286 286 286 285 285 284 284 284 283 283 284 283 283
320 322 323 325 326 327 328 328 329 329 329 330 329 329 329 329 329 329 330 330 330 330 330 330 330 329 329 328 327 327 325 324 324 323 323 322 322 321 320 319 317 315 314 312 310 308 305 303 300 296 292 291 291 291 291 291 290 290 289 289 289 289 289 289 289 288 288 289 288 287 287 286 286 286 285 285 285 284 284 283 283 283 283 283 283
316 317 318 320 321 323 325 326 327 327 328 328 328 328 328 328 329 329 329 330 330 330 330 330 330 329 329 328 327 327 325 323 322 322 322 322 321 320 319 318 317 315 313 311 309 306 302 299 296 293 291 291 291 291 291 290 290 289 289 289 289 289 288 288 288 287 288 288 287 286 286 286 286 286 285 285 285 284 283 283 283 283 282 283 283
314 315 317 319 321 323 324 325 326 326 327 327 327 328 328 328 328 329 329 330 330 330 330 330 329 329 328 328 327 325 323 322 321 321 321 322 321 320 319 317 316 315 313 311 308 305 300 296 293 291 290 290 290 290 290 290 289 289 289 289 288 288 288 287 287 287 287 287 287 287 286 285 286 285 285 285 284 283 283 283 283 283 282 282 283
313 315 318 320 322 324 324 325 325 325 326 327 327 327 327 328 328 328 329 329 329 329 329 329 329 328 328 327 326 325 322 321 320 320 320 321 321 320 319 317 315 314 313 310 308 304 299 294 292 291 290 290 290 290 290 289 289 289 288 288 288 288 287 287 286 286 286 286 286 286 285 285 285 285 284 284 284 283 283 283 282 283 283 282 282
312 313 316 318 320 322 323 324 324 324 325 325 326 327 327 327 328 328 329 329 329 329 329 328 328 327 327 326 325 324 322 321 320 319 319 320 320 319 318 317 315 313 311 309 306 303 297 293 291 291 290 291 290 290 290 289 289 289 288 288 288 287 287 286 286 286 286 286 286 286 286 285 285 284 284 284 283 283 283 283 282 282 282 282 282
313 313 314 316 317 319 320 321 321 321 322 322 322 323 324 325 326 327 327 327 328 328 327 327 326 326 325 325 325 324 322 320 319 317 318 319 318 317 316 315 313 311 309 307 304 300 295 292 291 291 291 291 291 290 290 289 289 289 288 288 287 287 286 286 286 286 286 286 286 286 285 285 284 284 284 283 282 282 282 282 282 282 282 281 282
314 315 315 315 316 316 316 315 315 315 316 317 318 319 320 321 322 323 324 324 324 325 325 325 324 323 324 325 325 323 321 319 318 317 318 317 315 314 314 314 312 309 306 303 300 297 293 291 291 291 291 291 291 290 290 290 289 289 288 288 287 287 286 286 286 286 286 285 286 285 285 284 284 284 284 283 282 282 282 281 280 281 281 281 281
313 314 314 314 313 312 311 310 311 312 313 315 317 318 319 320 320 321 321 321 322 322 323 323 322 323 324 324 323 320 318 317 317 317 317 315 313 312 313 313 311 307 303 299 296 293 292 291 291 291 291 291 290 290 290 290 290 289 288 288 287 287 286 286 286 286 286 285 285 285 285 284 284 283 283 282 282 282 281 280 279 279 279 280 280
312 312 312 311 311 309 308 307 308 310 312 313 315 316 318 319 319 319 320 320 321 321 322 322 322 322 323 322 320 317 316 315 315 316 316 315 314 313 313 312 309 304 301 297 294 292 291 290 290 290 290 290 290 289 289 289 289 289 289 288 288 287 286 286 286 286 286 285 285 285 284 284 283 283 282 282 282 281 281 280 279 278 278 278 280
310 309 308 308 307 306 305 305 305 306 308 310 312 314 315 316 317 318 318 319 319 319 320 320 320 320 318 317 316 315 315 314 314 314 314 314 314 314 312 310 306 302 299 296 293 291 290 290 289 289 289 289 289 289 288 288 288 288 288 287 287 287 287 286 286 286 285 285 285 284 284 284 283 283 282 282 282 282 280 279 278 278 277 277 278
307 306 304 304 304 303 303 304 304 304 305 306 308 310 312 313 315 315 316 316 317 317 317 317 317 317 316 314 314 315 315 314 313 313 313 313 312 311 310 309 306 301 297 294 292 291 290 289 289 288 289 289 289 288 288 287 287 287 287 287 287 287 286 286 286 286 285 285 285 285 284 284 283 283 282 282 282 281 280 279 278 278 277 277 277
305 304 303 303 302 303 303 304 305 306 306 307 307 308 309 310 311 312 313 314 314 315 315 315 315 314 314 313 313 313 313 312 312 311 311 310 309 309 310 309 306 301 296 293 291 291 290 289 288 288 288 288 288 288 288 287 287 287 287 286 286 286 286 286 286 285 285 285 285 285 284 284 283 283 283 282 282 281 279 279 278 278 277 277 277
304 303 303 302 303 303 304 305 306 307 308 308 308 308 309 309 309 310 311 311 312 313 313 313 313 313 312 312 312 312 311 311 311 309 308 307 306 306 306 305 303 299 295 292 291 290 290 290 289 288 288 288 288 288 287 287 287 286 286 286 286 286 285 285 285 285 285 285 284 284 284 284 283 283 283 282 282 281 279 279 278 278 277 277 277
303 303 303 302 303 303 304 305 306 307 308 308 309 309 309 310 310 310 310 311 311 311 311 312 312 312 311 310 310 310 310 309 308 307 306 305 304 303 303 302 299 297 293 291 290 290 290 290 289 289 289 288 288 288 287 287 287 286 286 286 286 286 285 285 285 285 285 285 284 284 283 283 283 283 283 282 281 280 279 279 278 278 277 277 277
302 303 303 303 303 303 304 305 306 307 308 308 309 309 309 309 309 309 309 309 309 309 310 310 311 310 309 308 308 308 308 307 306 305 306 305 304 303 302 300 298 295 292 291 290 290 290 289 289 289 289 289 288 288 287 287 287 286 286 286 286 285 285 285 285 285 284 284 284 284 283 283 283 283 282 282 281 280 279 278 278 278 277 277 277
302 302 302 303 303 303 304 305 306 307 308 308 308 309 309 310 309 309 309 309 308 308 308 308 308 307 307 306 306 306 306 306 305 306 306 306 305 303 301 299 297 294 291 290 289 289 289 289 289 289 289 289 288 287 287 286 286 286 286 286 285 285 285 285 284 284 284 284 284 283 283 282 282 282 282 282 281 280 279 279 279 278 277 276 275
301 301 302 303 303 303 303 304 306 307 307 307 308 308 308 308 308 307 307 307 307 306 305 304 304 304 303 303 304 304 304 304 304 305 306 306 305 304 301 298 294 292 289 289 288 288 288 288 288 288 288 288 288 287 287 286 286 286 286 285 285 285 285 285 284 284 284 283 283 283 282 281 281 282 282 281 280 280 280 279 279 278 277 276 275
300 301 301 302 303 303 303 304 305 306 306 306 307 307 306 306 305 304 304 304 304 304 303 303 302 302 301 301 301 302 302 303 303 303 303 303 302 301 298 295 291 289 288 287 287 287 287 287 287 287 287 288 288 287 287 286 286 286 286 285 285 285 286 285 285 284 284 283 283 282 281 281 281 281 281 280 280 279 279 279 279 278 277 277 275
300 300 301 302 303 303 303 304 304 305 305 305 305 305 304 304 303 303 302 301 301 301 301 301 300 300 300 300 300 300 301 302 302 302 302 300 299 298 296 293 290 288 287 287 287 287 287 287 287 287 287 287 287 287 287 286 286 286 286 285 285 286 287 286 285 284 283 283 282 282 281 281 281 281 281 280 279 279 279 278 278 277 277 276 275
299 299 300 301 302 303 303 304 304 304 304 304 304 303 302 302 302 301 300 299 299 298 298 297 297 297 297 297 297 298 299 300 301 301 300 299 297 296 294 292 290 289 287 287 287 287 287 287 287 287 286 286 286 286 286 286 286 286 286 286 286 286 286 285 284 283 283 282 282 281 281 280 280 280 280 280 279 279 278 278 277 277 276 276 276
298 299 300 301 302 303 303 303 303 303 303 303 302 302 300 299 299 298 298 297 297 296 295 295 295 295 295 295 296 296 297 298 299 298 297 296 295 293 291 290 289 288 287 287 286 287 287 287 287 287 286 286 286 286 286 286 286 286 286 286 285 285 285 284 283 283 282 282 281 281 280 280 280 280 280 280 280 279 279 278 277 276 275 276 276
298 299 300 300 301 302 302 302 302 302 302 301 300 300 299 298 297 297 297 297 296 296 295 295 295 295 295 295 295 296 297 297 297 296 295 293 292 291 290 289 288 287 287 287 287 287 287 286 286 286 286 286 286 285 285 285 285 285 285 285 284 284 284 283 282 282 282 282 281 281 281 280 280 280 280 280 280 279 279 278 277 276 276 275 275
298 299 299 300 300 300 300 300 300 299 299 299 299 299 299 298 297 297 297 297 297 296 295 295 295 294 294 294 294 295 295 295 294 293 292 291 291 290 289 288 287 287 286 286 286 286 286 286 286 286 286 286 285 285 285 285 284 284 284 284 284 283 283 282 282 281 281 281 281 281 280 280 280 280 279 279 279 278 278 277 277 276 276 276 275
297 298 298 298 298 297 297 297 297 297 297 297 298 298 297 297 296 296 296 296 296 295 294 294 294 293 293 293 293 293 293 292 291 291 290 290 290 290 289 288 287 286 286 286 286 286 286 286 286 285 285 285 285 284 284 284 284 284 284 284 284 283 282 282 281 281 281 281 280 280 280 279 280 280 279 278 277 277 277 276 276 276 276 275 275
296 296 296 296 296 296 296 295 295 296 295 295 296 296 296 296 296 295 295 294 294 293 293 292 292 292 291 291 291 291 290 290 290 289 289 289 289 288 288 288 287 286 286 285 285 285 285 285 285 285 285 284 284 284 283 283 284 284 284 284 284 283 283 282 281 281 281 281 280 280 279 279 279 279 278 277 276 276 276 276 276 276 275 275 275
295 295 295 295 294 295 295 294 294 294 294 294 295 295 295 295 295 295 294 294 293 292 292 291 291 291 290 290 289 289 289 289 289 288 288 288 288 288 287 287 286 286 285 285 285 285 284 284 284 284 284 284 283 283 283 283 284 284 284 284 284 283 283 282 282 281 281 281 280 279 279 278 278 278 277 277 276 276 276 276 276 276 275 275 274
293 293 293 293 293 293 293 293 293 293 293 294 295 295 295 295 295 295 294 294 293 292 292 292 291 291 290 289 289 288 288 288 288 288 288 288 287 287 287 287 286 286 285 285 285 284 284 284 284 283 283 283 282 282 282 283 283 284 284 284 284 283 283 282 282 281 281 280 280 279 278 277 277 277 277 276 276 276 275 275 275 275 275 274 273
293 292 292 292 292 292 292 292 293 293 292 292 292 293 293 293 293 293 292 292 292 292 291 291 290 290 289 289 288 287 287 288 288 287 287 287 287 287 287 287 287 286 286 285 284 284 284 283 283 283 282 282 282 282 282 283 283 283 283 283 283 283 282 282 281 281 280 280 279 278 277 277 277 276 276 276 276 275 275 275 275 275 274 273 273
292 292 291 291 291 291 291 291 291 291 291 291 290 289 289 290 290 290 290 289 289 289 289 289 288 288 288 287 287 286 287 287 286 286 286 286 286 286 286 286 286 286 286 285 284 284 283 283 282 282 282 282 282 282 282 282 282 282 282 282 282 282 282 281 281 280 280 279 278 277 276 276 276 276 275 275 275 275 275 275 274 274 274 273 273
291 290 291 290 290 290 290 289 289 289 289 289 289 288 287 287 287 287 287 287 287 287 287 287 287 287 286 286 286 286 285 285 285 285 285 285 285 285 285 285 285 285 285 285 284 284 283 282 282 282 282 281 281 281 281 281 281 281 281 281 281 281 281 281 281 280 279 279 278 276 276 276 276 275 275 275 275 275 275 274 274 273 273 273 273
290 288 289 289 288 289 289 288 288 288 287 287 288 288 287 286 285 285 286 286 286 286 286 286 286 286 285 285 285 285 285 284 284 284 284 284 284 284 284 284 284 284 285 285 284 284 283 282 282 281 281 281 281 281 281 280 280 280 280 280 280 280 280 281 281 280 279 278 278 276 276 275 275 275 275 275 275 274 274 274 274 273 273 273 273
290 288 288 288 287 287 287 287 287 287 287 287 286 286 286 286 285 285 285 285 285 285 285 285 285 285 284 284 284 284 284 284 284 283 283 283 283 283 283 283 283 283 284 284 284 283 283 282 282 281 281 281 281 280 280 280 280 280 279 279 280 280 280 280 280 278 278 278 277 276 276 275 275 275 275 274 274 274 274 274 273 272 272 272 272
290 288 288 288 287 286 287 286 286 286 286 286 286 285 285 286 285 285 285 284 284 284 284 284 283 284 284 283 283 283 283 283 283 283 282 282 282 282 282 282 282 283 284 284 283 283 283 282 282 281 281 281 280 280 280 279 279 279 279 279 279 279 279 278 277 277 276 276 275 275 275 274 274 274 274 273 273 273 273 273 272 272 272 272 272
288 287 287 287 287 286 286 286 286 285 285 285 285 285 284 284 284 284 284 283 283 283 282 282 282 282 282 282 282 283 283 283 282 282 281 281 281 281 282 282 282 283 284 284 284 283 283 282 282 282 281 281 280 280 280 279 279 279 278 278 278 278 277 277 276 276 276 275 275 274 274 274 273 273 273 273 273 272 272 272 272 272 272 272 272
286 285 285 286 286 285 285 285 285 284 284 283 283 283 283 283 282 282 282 282 282 281 281 282 282 282 282 282 282 282 282 282 282 281 281 281 281 282 282 282 282 282 282 283 283 283 283 283 282 282 282 281 281 280 280 280 279 279 279 278 278 277 277 277 276 276 275 275 275 274 274 273 273 272 272 272 272 272 272 272 272 271 271 271 272
285 284 284 284 284 284 283 283 283 283 283 282 282 282 282 282 282 282 282 281 281 281 281 281 281 281 281 281 281 281 282 281 281 281 281 281 281 282 282 282 282 282 282 282 282 282 282 282 282 282 282 282 281 281 281 280 280 279 279 279 278 278 277 277 277 276 276 275 274 274 273 272 272 272 271 271 271 271 272 271 271 271 271 271 271
284 284 283 283 283 283 283 282 282 282 282 282 282 282 282 282 282 282 281 281 280 280 280 279 279 279 279 279 279 280 280 280 280 281 281 280 280 281 281 282 282 282 282 282 281 281 281 281 281 281 281 281 281 281 281 280 280 280 279 279 278 278 277 277 277 276 275 275 274 274 273 272 271 271 271 270 270 271 271 271 271 271 271 271 271
283 282 282 283 283 283 283 282 282 282 282 282 282 282 282 282 281 281 281 281 280 280 280 279 279 279 279 279 279 279 280 280 279 279 279 279 279 279 279 280 280 281 281 281 281 281 281 281 281 280 280 280 280 280 280 280 280 280 279 279 278 278 277 277 276 276 275 274 274 273 272 271 271 270 270 270 270 270 270 270 271 271 271 271 271
282 282 282 282 282 282 282 282 282 282 282 282 282 282 282 282 281 281 281 281 281 280 280 280 280 279 279 279 279 279 279 279 278 277 277 278 278 278 278 278 279 279 279 280 280 280 280 280 280 280 280 280 280 280 280 280 280 279 279 279 278 277 277 276 276 275 275 274 273 272 272 271 270 270 270 270 270 270 270 271 271 271 271 271 271
281 281 281 281 281 281 281 282 282 282 282 282 281 281 281 281 281 281 281 280 280 280 280 279 279 278 278 278 278 278 278 277 277 277 276 276 276 276 276 276 277 277 277 277 278 278 278 278 278 278 279 279 279 279 279 279 279 279 279 278 278 277 277 276 276 275 274 274 273 272 271 271 270 270 269 270 270 270 270 270 271 271 270 270 270
281 280 280 280 281 282 282 281 281 281 281 281 281 280 280 280 280 280 279 279 279 279 278 278 277 277 277 277 276 276 276 276 276 275 275 275 275 275 275 275 275 275 275 275 275 275 275 275 275 275 275 276 276 276 277 277 277 277 278 277 277 277 276 276 275 275 274 273 273 272 271 271 270 269 269 269 269 269 269 270 270 270 270 269 269
280 280 280 280 280 281 281 280 280 280 280 280 280 279 279 279 278 278 278 277 277 277 276 276 275 275 275 274 274 274 274 274 274 274 274 274 274 274 274 273 273 273 273 273 273 273 273 273 273 273 273 273 273 274 274 274 275 276 276 276 276 276 276 275 275 274 274 273 272 272 271 270 270 269 269 269 269 269 269 269 269 269 269 269 269
280 280 280 280 280 280 280 279 279 279 279 279 278 278 277 276 276 276 275 275 275 274 274 274 273 273 273 273 273 273 273 273 273 273 273 273 273 273 273 272 272 272 272 272 272 272 271 271 271 271 271 271 271 271 272 272 272 273 274 274 274 274 274 274 274 274 274 273 272 272 271 270 269 268 268 268 268 268 268 268 269 268 268 268 268
279 279 279 279 279 279 278 278 278 278 277 276 276 275 274 274 274 274 273 273 273 273 272 272 272 272 272 272 272 271 271 271 271 271 271 271 271 271 271 271 271 270 270 270 270 270 270 270 269 269 269 270 270 270 270 270 270 271 271 272 272 273 273 273 273 273 273 273 272 271 270 269 269 268 268 268 268 268 268 268 268 268 268 267 267
278 278 278 277 277 277 276 276 275 275 274 274 273 273 273 273 273 272 272 272 271 271 271 271 270 270 270 270 270 270 270 269 269 269 269 269 269 269 269 269 269 268 268 268 268 268 268 268 268 267 268 268 268 268 268 269 269 269 269 270 270 271 271 272 272 272 272 272 271 271 270 269 268 268 268 267 267 267 267 268 268 268 267 267 267
276 276 276 275 275 275 274 273 272 272 272 272 272 272 272 272 272 271 271 271 270 270 270 269 269 269 269 269 269 268 268 268 268 268 268 268 267 267 267 267 267 267 267 267 267 267 266 266 266 266 266 266 266 267 267 267 267 268 268 268 268 269 269 270 270 271 271 271 270 270 269 269 268 268 267 267 267 267 267 267 267 267 267 267 267
274 274 274 273 272 272 272 271 271 272 272 272 272 272 271 271 270 270 270 269 269 269 268 268 268 268 267 267 267 267 267 267 267 267 266 266 266 266 266 265 265 265 265 266 266 266 266 265 265 265 265 265 265 265 266 266 266 266 266 267 267 267 268 268 269 269 269 269 269 269 269 268 268 267 267 267 266 266 266 267 267 267 267 267 267
273 272 272 271 271 271 271 271 272 272 271 271 271 270 270 269 269 269 268 268 268 267 267 267 267 267 266 266 266 266 266 265 265 265 265 265 265 265 265 265 265 265 265 265 265 265 265 265 264 264 264 265 265 265 265 265 265 266 266 266 266 266 267 267 268 268 268 268 268 268 268 267 267 267 267 267 266 266 266 266 266 266 266 266 266
271 271 271 271 271 271 271 271 271 271 270 270 269 269 268 268 268 267 267 267 266 266 266 266 266 266 265 265 265 265 264 264 264 264 264 264 264 264 264 264 264 264 264 264 264 264 264 264 264 264 264 264 264 264 264 265 265 265 265 265 265 266 266 266 266 267 267 267 267 267 267 266 266 266 266 266 266 266 265 265 265 266 266 266 266
271 271 271 271 271 271 270 270 269 269 268 268 268 267 267 266 266 266 266 266 265 265 265 265 265 264 264 264 264 263 263 263 263 264 264 264 264 264 263 263 263 263 263 263 263 263 263 264 264 264 264 264 264 264 264 264 264 264 264 264 265 265 265 265 265 265 266 266 266 266 266 266 266 266 266 266 265 265 265 265 265 265 266 266 266
Wind_Speed
32 33 34 34 34 35 36 36 36 36 35 35 36 37 36 36 36 35 35 35 36 36 37 37 37 38 38 38 38 38 38 38 38 37 36 35 35 36 36 36 34 32 30 30 29 29 31 33 33 32 30 27 25 24 22 21 20 19 17 16 16 14 14 13 10 8 9 10 9 8 8 6 4 4 5 5 6 9 9 8 9 9 9 10 9
28 29 29 30 31 32 33 33 33 33 34 34 35 35 35 35 34 34 35 35 35 36 36 36 36 37 37 37 37 37 38 39 40 39 38 38 37 37 37 37 35 33 31 30 30 30 32 34 34 32 29 27 26 24 23 22 20 19 18 17 16 15 14 14 12 10 10 11 9 8 7 5 3 2 5 6 7 10 8 7 9 8 9 10 9
24 25 26 27 28 29 29 29 29 30 31 32 33 33 34 34 33 34 34 34 34 34 34 34 35 35 35 36 37 38 39 40 41 42 41 40 39 39 38 37 35 33 32 31 31 32 33 34 34 32 29 27 26 25 23 22 21 20 18 17 16 16 15 14 13 12 11 11 9 6 4 3 2 3 5 6 8 10 8 8 9 8 10 10 8
21 21 22 22 23 24 25 25 25 25 26 28 29 29 30 31 31 31 31 32 32 33 34 33 33 33 34 36 38 39 40 41 42 43 43 42 40 40 39 37 36 34 32 32 33 34 35 35 34 32 30 28 27 25 24 23 22 20 19 17 16 15 15 14 13 12 11 11 9 6 4 2 2 4 6 7 8 10 8 8 9 9 10 10 8
18 19 19 19 19 20 21 22 22 23 23 24 25 25 26 27 27 27 27 29 30 31 32 33 34 34 34 35 36 38 40 41 43 44 44 42 41 41 40 38 36 34 32 32 33 35 36 35 34 32 31 30 28 27 26 24 23 21 20 18 17 15 14 14 13 12 12 11 9 6 4 3 3 5 7 7 8 9 7 9 11 11 11 9 8
18 19 19 19 19 20 21 21 22 23 23 23 22 22 22 23 24 25 26 28 30 31 33 34 34 32 31 32 35 38 40 42 44 45 44 43 42 41 41 38 35 34 33 33 34 36 37 36 35 34 32 31 30 29 27 25 24 22 21 19 18 16 15 14 14 13 12 10 8 6 5 5 5 5 6 8 9 8 7 10 12 12 12 10 7
18 19 20 20 20 21 21 21 22 22 23 23 23 23 22 22 23 24 24 25 28 30 30 30 30 29 30 33 37 39 40 42 44 43 42 42 41 41 39 36 34 33 33 33 35 37 38 37 35 34 33 31 30 29 28 26 25 23 21 20 18 17 16 15 14 13 12 10 9 8 8 7 6 6 6 8 8 6 8 12 13 13 13 11 7
16 17 18 18 19 20 20 20 20 21 22 22 22 24 24 25 25 26 26 28 30 30 31 32 34 35 36 36 37 39 41 42 43 43 42 41 41 39 37 34 33 33 33 34 36 38 38 37 35 33 32 30 29 28 27 26 25 24 22 20 19 18 16 15 15 14 12 11 10 10 10 9 8 7 7 7 6 4 7 12 13 13 13 10 6
17 17 17 17 17 17 17 17 17 17 19 20 21 21 22 22 23 24 26 28 29 29 30 33 35 35 35 35 36 37 39 40 42 43 43 42 39 37 35 33 33 34 34 35 36 37 37 36 34 32 30 29 27 26 25 25 24 23 23 21 20 19 17 16 16 15 14 14 13 12 12 12 10 9 7 6 5 4 6 9 10 10 11 9 6
19 19 19 19 18 17 16 16 17 17 18 19 20 20 21 22 23 24 25 26 27 27 27 28 29 30 32 34 34 35 36 38 40 41 42 40 38 36 35 34 34 34 35 36 36 36 36 35 33 31 30 28 27 25 25 24 22 21 20 20 20 19 18 18 18 17 16 16 16 14 14 13 11 9 8 6 5 4 6 8 8 7 9 9 7
20 20 20 19 18 17 16 15 15 17 18 18 18 18 18 19 20 22 23 24 25 26 27 27 28 29 30 30 31 32 34 35 36 37 38 37 37 38 37 35 34 34 35 37 38 37 36 34 33 32 31 29 28 26 25 24 23 21 19 18 18 18 18 18 18 18 18 17 16 16 16 14 11 10 9 7 6 5 6 7 6 5 6 7 6
20 19 18 16 15 14 14 13 12 12 13 15 16 17 17 16 16 16 18 18 19 21 22 24 25 26 26 27 28 30 31 33 34 34 35 36 38 38 35 33 33 35 36 38 39 38 37 36 35 34 32 31 29 28 27 26 24 22 20 19 18 18 17 17 17 17 18 17 17 16 15 13 11 11 10 8 6 6 7 6 4 4 5 5 5
20 18 17 15 14 14 13 13 12 12 11 11 13 14 15 16 15 15 15 15 16 17 19 21 22 23 24 25 26 28 29 30 32 33 34 36 36 35 34 33 34 35 37 39 40 40 39 38 37 35 33 32 30 30 29 27 25 23 22 20 20 19 19 18 17 17 16 16 16 15 13 12 12 11 10 8 7 7 8 6 5 6 7 7 7
21 19 18 17 16 15 14 14 13 13 13 13 12 13 14 15 15 15 15 15 16 16 17 18 19 20 21 23 24 26 27 29 30 32 33 33 33 33 33 32 32 34 37 39 40 40 40 40 39 37 35 34 33 31 30 28 26 25 23 22 22 21 20 19 19 18 17 16 15 13 12 12 12 11 9 9 9 9 9 8 7 8 9 9 9
21 20 19 18 17 16 16 15 14 14 14 14 14 14 15 15 16 17 17 17 17 17 18 18 19 19 20 21 23 24 26 27 29 29 30 31 31 31 30 30 31 34 36 38 40 40 40 39 38 37 36 35 34 33 31 29 27 26 24 24 23 22 21 20 19 18 17 16 15 13 13 13 12 11 10 10 11 10 9 9 9 10 10 10 10
21 21 21 20 19 18 17 16 16 15 15 15 15 15 15 15 15 16 16 17 18 18 18 19 20 20 20 21 22 24 25 26 27 27 28 29 30 29 29 30 31 33 36 38 39 39 39 38 38 37 37 36 35 33 31 29 28 26 25 24 23 23 22 20 19 18 17 16 15 14 14 14 13 12 11 11 11 10 9 9 10 11 11 10 9
21 22 21 20 19 18 18 17 17 16 16 16 16 15 14 13 14 14 15 16 17 17 18 18 19 19 20 21 22 23 24 25 25 25 26 28 29 30 31 31 32 34 36 37 37 37 38 38 37 37 36 35 34 33 31 29 28 27 26 25 24 24 23 21 20 20 19 17 16 15 15 14 13 13 12 10 10 10 11 12 12 11 10 7 6
21 21 22 21 19 18 18 18 17 17 17 16 15 14 13 13 12 12 13 13 14 14 15 15 16 17 18 19 20 21 22 22 23 24 25 27 29 30 31 31 32 33 33 34 34 35 36 36 36 35 35 34 34 33 32 30 29 28 27 26 26 26 25 23 22 21 19 18 17 16 15 15 14 13 12 10 10 12 14 14 12 11 10 7 6
21 21 21 20 18 17 16 16 16 15 15 13 12 11 11 10 10 10 10 10 10 11 12 13 14 14 16 17 18 19 20 20 21 22 23 25 27 29 30 30 30 30 30 31 31 32 33 33 33 34 33 33 33 32 32 30 29 28 28 28 28 28 25 23 22 21 20 19 18 18 17 17 15 14 13 12 11 14 16 15 14 13 12 10 8
18 18 18 17 16 15 14 14 13 12 11 10 9 8 8 7 7 7 8 9 8 9 9 10 12 12 13 15 16 17 18 18 19 19 21 23 26 28 29 30 30 30 30 31 31 32 33 33 33 33 33 32 32 31 31 30 29 30 30 29 29 28 24 22 22 22 21 20 20 19 19 18 17 15 14 14 14 15 16 16 15 14 13 11 9
15 15 16 16 16 14 13 12 10 9 9 8 7 7 6 5 5 5 6 6 6 6 7 8 9 9 10 11 13 14 15 15 16 16 18 21 25 27 29 30 31 31 31 31 32 33 34 34 34 33 33 32 32 30 29 29 30 31 31 30 29 26 22 20 20 21 22 22 21 21 20 19 18 17 16 16 15 15 16 15 14 13 13 12 11
13 14 15 15 15 14 13 13 11 10 10 8 8 7 6 5 4 4 4 4 4 4 4 5 6 6 7 8 10 11 12 13 13 14 15 19 23 25 27 27 28 28 28 29 31 32 33 33 33 33 33 33 32 30 29 30 31 32 31 30 28 26 23 20 18 20 22 23 22 22 22 21 20 19 19 17 16 15 14 14 13 13 14 14 13
14 15 15 16 15 14 14 14 13 11 10 9 9 8 7 6 5 5 5 4 4 4 4 4 4 5 6 6 8 10 11 12 13 14 14 16 20 23 25 25 25 25 26 28 30 31 32 32 32 32 33 33 32 30 30 31 32 32 32 30 29 27 25 21 19 20 22 22 23 24 24 23 22 21 20 18 16 15 14 13 14 14 15 15 14
15 16 16 16 16 15 14 13 12 11 10 9 9 8 8 7 7 7 6 6 5 5 5 4 4 5 6 7 8 10 11 12 13 13 13 14 18 22 24 24 24 24 25 26 28 29 30 30 31 31 32 32 31 31 31 32 33 33 32 30 27 25 24 23 21 21 22 23 24 26 26 24 22 21 20 17 14 14 14 14 14 15 16 16 14
16 16 16 16 15 14 13 12 10 9 9 8 9 9 9 9 9 8 7 7 6 6 6 5 6 6 7 8 9 10 11 11 11 12 12 13 16 20 23 24 25 25 24 24 25 26 27 28 28 29 30 30 30 31 31 31 31 30 29 27 24 22 23 24 22 22 23 25 26 26 26 24 21 19 17 15 14 15 15 15 16 15 15 16 15
17 16 16 15 14 14 13 12 11 11 10 9 9 9 9 10 9 9 8 7 7 6 6 6 6 7 8 8 9 9 10 11 11 12 12 13 16 19 23 25 26 25 24 23 23 24 24 25 26 27 28 29 30 31 31 30 28 27 26 25 23 22 23 24 23 24 25 26 26 26 25 22 19 17 16 16 16 17 17 16 16 16 16 15 15
19 18 17 16 15 14 14 15 14 13 13 12 11 11 10 10 10 9 9 8 8 7 6 6 6 7 7 8 8 9 10 11 12 13 14 14 16 18 21 24 25 25 25 24 23 23 23 24 24 25 25 26 27 29 29 28 26 25 25 24 23 24 25 25 26 26 27 26 25 24 23 21 18 17 18 18 19 18 17 17 17 16 15 14 14
21 20 19 18 17 16 16 17 17 16 14 13 13 12 11 11 10 9 8 8 8 7 7 7 7 7 7 8 8 9 10 11 12 12 13 14 15 17 19 22 24 25 26 25 24 23 22 22 23 23 23 23 24 25 26 26 26 26 25 25 25 26 26 26 27 28 28 26 25 23 22 21 19 19 19 19 20 19 18 17 18 17 15 14 15
22 22 21 20 19 18 18 18 18 18 17 15 13 11 10 9 9 9 8 7 6 6 6 6 6 6 6 7 8 9 10 10 10 11 11 12 14 16 18 20 22 24 25 26 25 23 22 22 22 22 22 22 22 23 25 26 26 27 27 27 28 28 28 28 30 30 29 27 26 26 24 22 21 21 20 21 22 21 18 18 18 17 15 16 18
24 23 22 22 21 20 20 19 18 17 17 16 15 13 11 8 7 6 6 5 4 4 4 4 4 4 5 6 6 7 8 9 9 9 10 11 12 13 15 17 18 20 22 23 23 22 22 23 23 23 23 23 23 23 25 26 27 28 28 29 29 29 30 31 32 31 30 29 28 27 26 24 24 23 23 23 23 21 19 19 19 18 17 19 20
26 24 23 23 22 21 20 19 18 16 15 14 15 15 13 10 7 5 4 3 3 2 2 3 3 4 5 6 6 6 7 7 8 9 10 10 11 11 12 13 15 17 19 20 21 22 23 23 24 24 24 24 24 24 24 25 26 27 28 28 30 31 32 33 34 33 32 30 29 28 28 27 27 26 25 25 24 22 20 20 19 20 21 21 22
27 25 23 22 21 20 20 19 18 17 15 13 13 13 13 13 10 8 6 5 3 2 2 2 3 5 6 7 8 8 8 8 9 9 10 10 10 10 10 11 13 15 17 18 20 22 23 24 24 23 23 24 25 24 24 25 26 27 28 29 31 33 35 36 36 34 33 32 31 31 31 30 30 29 27 26 25 23 22 22 22 23 23 22 22
26 25 23 22 21 19 19 18 17 17 16 14 14 13 13 14 13 11 9 8 6 5 4 2 1 1 3 4 6 7 8 9 10 10 10 10 10 10 10 11 12 14 15 18 21 23 24 24 25 24 24 25 26 26 27 28 29 29 30 32 35 36 37 37 35 34 33 34 33 32 32 32 31 30 29 28 27 25 24 24 24 23 23 22 22
25 24 23 23 22 20 19 18 18 17 16 15 14 13 13 12 12 11 10 9 8 7 6 5 4 4 3 3 2 3 5 6 8 9 10 10 10 10 10 11 12 13 15 19 22 23 23 23 24 24 25 25 25 26 27 28 29 30 31 33 35 35 34 32 32 32 33 33 32 32 33 32 31 31 30 29 27 26 26 25 25 24 24 23 22
24 23 22 22 22 21 19 19 18 17 16 15 14 14 12 11 10 10 9 9 9 8 7 7 6 5 5 5 4 4 4 4 4 5 6 7 8 8 9 11 13 14 16 20 22 23 23 23 24 24 24 24 24 25 26 27 28 29 31 32 33 32 31 31 31 32 32 32 32 33 32 32 32 32 31 30 28 28 28 27 26 26 25 24 22
24 24 23 22 22 21 20 19 18 17 17 16 14 13 12 11 10 10 9 9 9 8 7 7 6 5 5 5 5 5 4 4 4 4 4 4 5 6 9 13 15 16 18 21 23 23 23 24 25 25 24 24 25 25 26 27 29 30 31 32 31 31 31 32 33 33 33 33 34 33 33 33 33 32 31 30 30 30 29 28 27 26 25 24 23
24 24 23 22 21 21 20 18 17 16 16 15 14 13 12 12 11 10 10 9 8 8 7 6 6 6 6 6 6 6 5 4 4 4 4 4 4 7 10 14 16 18 20 22 22 23 24 25 25 26 26 26 27 27 27 28 29 30 30 31 31 31 32 33 33 33 33 33 33 33 33 33 33 32 31 31 30 29 29 27 25 24 24 23 21
22 22 21 20 20 20 20 18 17 16 15 14 13 13 13 12 11 10 10 9 8 7 6 6 7 7 7 7 6 6 6 5 5 5 5 5 5 6 10 13 17 19 21 23 23 23 25 26 26 26 26 27 28 28 29 29 29 30 30 31 32 32 32 32 33 32 32 33 33 33 33 32 32 31 31 30 30 29 28 27 25 24 23 22 21
20 20 19 19 18 18 19 18 18 17 16 15 14 13 12 12 11 10 9 8 7 7 6 6 6 6 6 6 6 6 7 8 8 8 8 8 7 8 9 12 15 18 21 22 23 24 25 27 27 27 27 28 29 29 30 30 30 31 31 31 32 32 31 32 32 32 33 33 34 33 32 31 31 30 30 31 31 29 28 27 26 26 25 24 24
20 20 19 19 19 18 18 18 17 16 15 14 13 12 12 11 10 9 8 7 6 6 5 5 5 5 5 5 6 7 8 9 9 10 11 11 11 11 11 13 15 17 19 21 22 23 25 26 26 27 27 28 29 29 30 31 31 31 32 32 32 32 32 32 33 33 33 34 33 32 32 31 30 29 30 31 32 30 29 28 28 27 27 26 25
20 20 19 18 18 18 17 17 16 15 14 13 12 12 11 10 9 7 6 5 5 4 4 4 3 3 3 4 4 5 7 9 10 11 12 13 13 14 14 14 15 16 18 19 20 21 22 23 24 24 25 26 26 27 28 29 30 30 31 31 32 33 33 33 33 33 33 33 33 32 32 31 30 30 32 32 32 31 30 29 28 27 26 26 25
19 20 19 17 16 16 16 16 15 14 13 12 11 10 9 8 7 6 5 4 3 3 2 2 2 2 3 3 3 4 5 7 9 11 12 12 13 14 14 14 15 16 17 19 20 21 23 24 24 25 25 26 26 26 27 28 29 29 31 32 32 33 34 33 34 34 34 33 33 32 32 32 32 32 33 33 32 31 31 29 28 27 26 25 24
17 18 17 16 14 14 14 14 12 12 11 10 9 8 7 6 6 5 4 4 3 2 2 3 3 4 4 4 5 6 6 7 8 9 10 11 12 13 13 14 14 15 16 18 19 21 22 24 26 26 27 27 27 27 27 27 28 29 30 32 32 33 34 34 34 33 32 32 32 32 32 32 32 32 33 32 32 31 31 29 28 27 26 26 24
15 15 14 13 12 12 12 11 9 9 9 8 7 7 6 5 5 4 3 3 2 2 3 4 5 6 6 7 7 8 8 8 9 9 10 11 12 13 13 14 15 16 17 18 18 20 21 23 25 27 27 28 28 27 27 27 27 27 28 30 31 33 33 33 33 33 32 32 33 33 32 32 32 32 32 32 32 31 30 29 29 27 27 26 24
12 12 11 11 10 9 9 8 7 7 6 6 5 5 4 3 3 3 2 2 3 3 4 5 6 7 8 8 9 9 9 9 10 11 11 12 13 14 15 15 16 17 18 19 20 20 21 22 24 25 27 27 27 27 27 27 26 26 27 28 29 32 33 32 32 32 32 32 32 32 31 32 32 32 32 32 32 32 31 30 29 28 27 26 25
10 9 8 8 8 7 7 6 5 5 4 4 4 4 3 3 2 2 2 3 4 4 5 6 6 7 8 9 9 10 10 11 12 12 13 13 14 15 16 17 18 19 19 20 21 21 22 22 23 24 26 27 27 26 26 26 26 26 26 26 28 30 31 31 32 31 31 31 31 31 31 32 32 32 32 32 32 32 31 30 29 29 28 26 26
8 8 7 6 6 5 5 4 4 3 3 3 3 3 3 3 3 3 4 4 4 5 6 6 7 8 9 10 10 11 11 12 13 13 14 14 15 16 17 18 19 20 20 21 21 21 22 22 22 24 25 26 27 27 26 26 26 27 27 27 27 28 28 29 30 31 31 30 30 31 31 32 32 32 32 32 31 31 30 29 28 28 28 26 25
7 6 6 5 4 3 3 2 2 2 2 3 3 4 3 4 4 4 5 5 5 6 7 7 8 9 9 10 11 11 12 12 13 13 14 15 16 16 18 19 20 20 21 21 21 20 20 20 21 22 24 25 26 27 28 29 29 29 29 28 27 26 25 26 27 29 29 29 30 30 31 31 32 31 31 32 32 31 30 30 29 28 27 26 25
6 5 4 3 3 2 1 1 2 3 3 3 4 4 4 4 5 5 5 6 6 7 7 8 9 9 10 11 11 11 12 13 14 14 15 16 16 17 18 18 18 19 19 19 19 19 19 20 21 22 23 24 25 26 28 29 29 29 29 28 26 24 23 24 25 26 27 28 29 29 30 30 31 31 31 31 32 31 30 29 28 28 27 26 25
4 3 2 1 0 1 2 2 3 3 4 4 4 5 5 6 6 6 7 7 8 8 8 9 9 10 10 11 12 12 13 14 14 15 15 16 16 16 16 17 17 17 18 19 20 20 21 22 22 23 24 24 25 26 26 27 27 27 26 25 24 22 22 22 23 24 25 26 27 28 28 29 30 30 30 31 31 30 29 29 28 27 27 26 26
2 1 0 1 2 2 3 3 3 4 4 5 5 6 7 7 7 7 8 8 9 9 9 10 10 10 11 11 12 12 13 13 14 14 14 15 15 16 16 17 18 18 19 20 21 21 22 22 23 24 24 24 25 25 25 26 26 25 24 23 22 21 21 21 22 23 24 25 26 27 27 29 30 30 30 30 30 29 29 28 27 27 27 27 26
Wind_Direction
226 226 227 228 229 231 232 233 232 232 233 233 233 233 233 232 230 230 230 229 228 226 225 223 222 221 220 219 220 221 221 220 218 217 216 217 217 216 216 217 220 222 223 223 221 221 217 210 206 203 199 195 191 188 187 185 186 188 189 189 189 188 188 191 187 168 180 202 214 226 240 252 259 279 308 309 317 333 343 354 356 359 5 7 13
229 230 232 232 234 236 237 237 236 236 235 235 235 235 235 233 232 231 230 229 228 226 225 223 223 223 222 222 224 224 223 220 216 214 214 214 213 213 215 216 218 220 219 219 218 216 211 207 203 198 194 193 190 187 187 187 187 189 191 192 193 194 193 194 199 193 186 195 208 221 231 236 229 276 306 302 312 328 341 357 357 2 8 6 13
231 232 233 235 237 238 239 238 237 236 235 235 236 236 235 234 232 231 230 229 228 227 227 225 223 223 225 228 229 228 225 220 216 213 212 212 212 213 215 217 218 219 219 219 216 211 206 204 201 194 190 190 189 187 188 189 190 191 193 196 195 197 197 195 202 207 199 197 205 213 217 213 215 274 295 293 310 322 333 358 5 9 10 6 16
230 230 230 232 232 232 232 230 229 229 229 231 232 232 232 231 230 230 229 228 228 228 228 227 226 227 229 230 229 228 225 219 216 214 213 214 215 216 217 218 219 221 221 220 216 209 204 202 198 193 189 188 188 188 189 190 192 192 195 198 198 199 200 198 204 213 213 207 204 211 222 209 215 267 278 280 306 319 328 355 5 13 17 13 20
228 228 227 226 224 222 221 219 219 220 221 223 225 226 227 227 228 229 228 228 228 228 228 228 228 227 228 229 229 229 226 221 218 216 214 215 218 219 218 219 220 222 223 221 215 208 203 201 198 193 191 189 188 188 190 192 193 194 197 200 201 202 202 204 208 214 218 215 206 209 223 220 229 258 266 278 307 316 322 350 3 11 19 21 25
220 223 223 222 222 220 220 219 219 219 220 221 221 222 223 224 226 227 228 229 229 229 229 227 224 224 229 234 235 232 229 225 222 218 215 215 217 218 218 218 220 221 221 218 213 207 203 202 199 196 194 192 191 190 192 193 194 196 198 200 202 204 204 206 209 212 216 218 215 215 221 226 234 244 260 286 310 313 317 344 359 7 17 23 27
211 215 219 222 224 226 227 228 229 229 230 230 230 229 229 229 228 229 230 231 230 228 226 225 228 233 238 239 237 233 229 225 222 218 215 216 217 216 215 216 218 220 219 216 210 205 203 202 201 199 198 196 195 193 193 194 195 197 199 201 202 203 205 206 208 211 212 214 219 223 225 231 233 236 257 286 306 312 324 342 353 2 14 20 15
207 209 215 218 223 228 230 233 236 238 238 238 239 238 237 237 237 237 238 238 237 236 234 236 238 237 235 234 234 231 227 223 221 218 217 218 218 215 213 214 217 218 216 213 207 203 202 203 203 202 201 200 199 198 196 196 196 197 200 203 204 204 204 205 208 209 211 216 221 223 226 229 229 236 253 276 294 312 333 344 351 356 4 15 7
209 209 211 214 218 225 230 231 231 233 234 235 236 236 236 237 239 240 241 241 242 243 242 239 235 230 229 231 232 228 224 222 220 218 218 218 216 214 213 215 217 216 212 208 205 203 202 202 203 203 203 201 201 201 201 201 200 199 200 202 204 204 205 206 209 209 210 217 221 221 226 230 230 235 246 262 280 310 331 340 351 348 346 1 6
211 212 213 215 218 222 225 225 223 222 224 227 230 232 233 235 237 238 240 241 243 244 243 239 234 231 231 231 229 225 223 222 221 220 220 220 218 215 215 215 215 214 209 205 203 203 203 202 202 203 203 201 200 201 203 205 206 206 206 207 207 207 205 205 209 212 212 217 221 218 222 229 231 234 240 250 265 294 320 332 348 343 333 349 4
213 217 219 220 220 221 222 225 226 223 221 222 224 227 229 231 232 232 234 236 238 238 238 237 235 235 234 231 228 226 226 226 225 223 222 222 220 216 213 212 212 212 209 205 203 203 202 201 202 202 202 201 201 202 204 206 207 208 209 211 213 213 212 210 212 214 215 219 222 221 225 232 233 231 234 239 254 283 310 325 337 331 328 346 351
216 219 222 220 218 217 217 219 222 221 219 220 222 222 225 227 229 231 231 233 234 235 236 237 237 237 236 233 231 231 231 230 228 226 224 223 221 217 214 213 214 212 209 206 204 203 201 200 201 202 202 202 202 203 204 206 208 208 208 210 213 215 216 216 217 219 221 223 223 223 229 234 231 228 230 237 253 277 297 308 306 294 308 324 308
215 217 217 215 212 210 209 209 211 212 211 212 214 214 219 223 227 232 235 236 239 241 240 240 239 238 237 235 234 234 233 232 229 226 224 222 219 217 216 217 216 212 209 207 205 204 202 200 200 201 202 203 204 205 206 206 208 208 209 212 214 216 216 218 221 225 228 230 229 231 236 235 233 231 234 248 263 271 280 286 275 269 288 301 294
212 214 215 213 210 206 204 205 206 208 209 209 208 208 211 216 220 225 230 235 239 243 244 243 241 240 238 237 236 235 232 231 229 225 222 219 216 216 216 216 215 214 211 208 206 206 205 203 202 201 201 203 205 207 207 208 208 208 209 213 216 218 219 220 222 225 228 232 235 238 238 235 236 237 244 260 266 267 271 272 269 275 289 299 302
210 212 214 213 210 206 204 203 203 205 207 208 210 210 211 215 217 220 224 227 230 235 238 240 241 241 238 235 233 232 231 230 228 224 220 217 215 216 217 217 217 215 213 210 209 209 208 207 206 204 204 204 206 208 208 209 210 210 211 214 218 220 220 221 224 227 230 234 237 237 236 236 238 244 254 265 266 266 270 270 276 285 290 296 301
208 209 211 211 209 207 203 202 202 205 206 207 208 210 212 216 219 221 224 226 228 231 233 235 238 238 236 233 231 231 231 229 226 224 220 217 216 218 220 220 219 217 215 212 211 211 211 210 209 208 207 207 207 209 210 211 212 212 214 217 220 222 222 222 224 227 230 233 234 233 232 234 240 250 259 263 264 266 266 265 273 277 279 291 301
208 207 208 209 208 208 206 204 203 204 206 207 208 208 210 214 218 220 222 225 228 231 232 233 236 236 236 233 231 231 231 229 226 224 221 217 217 219 220 221 221 219 216 215 213 213 212 212 212 211 210 210 210 210 211 212 213 214 216 219 221 224 223 221 221 225 227 229 232 232 231 232 239 251 255 252 253 257 253 255 264 264 263 281 296
207 207 208 207 207 207 208 207 206 207 209 210 210 210 212 216 220 221 223 226 230 232 234 235 235 236 236 235 233 233 233 231 226 223 221 219 219 221 222 221 219 218 217 215 215 214 213 213 213 214 214 214 214 212 212 214 214 215 217 219 221 224 223 220 220 223 224 227 231 231 231 232 235 242 245 241 237 244 249 254 257 252 249 254 260
206 207 207 207 206 207 209 211 211 212 214 215 215 216 216 219 223 224 224 227 231 234 236 238 237 237 235 234 233 233 234 231 226 222 221 220 220 222 221 218 216 215 215 215 215 216 216 216 216 216 217 218 217 215 215 216 216 218 219 219 221 225 225 223 224 226 226 227 230 229 228 231 234 238 244 243 235 241 251 256 255 248 246 245 243
207 205 204 203 205 207 210 213 216 219 223 223 221 222 225 226 228 226 223 224 229 233 237 239 240 240 237 234 233 232 233 231 227 224 223 222 222 223 221 218 216 215 215 216 216 217 218 218 218 218 219 219 220 219 218 219 220 222 222 222 225 228 229 227 228 230 231 232 232 231 231 234 238 241 245 245 242 244 251 257 257 252 248 244 235
202 200 197 196 199 202 205 208 211 215 220 223 219 216 218 223 222 217 216 219 225 230 235 238 241 244 242 239 236 236 237 237 236 235 232 228 227 226 224 222 220 219 217 217 218 219 219 219 219 220 219 221 221 220 220 222 224 225 227 229 231 233 232 233 232 230 231 233 232 232 234 236 239 242 245 246 245 246 250 254 255 252 249 249 243
190 191 190 189 191 195 199 200 202 205 206 206 205 199 193 194 192 188 193 200 206 216 227 234 240 247 250 249 248 248 250 252 253 251 244 235 230 228 227 226 226 224 222 220 221 223 223 223 223 222 222 222 222 221 222 225 227 229 232 233 234 235 235 236 234 229 228 231 231 232 235 236 236 239 242 242 243 245 247 250 251 250 252 255 254
178 180 182 183 184 188 192 193 195 198 197 193 191 187 181 176 169 165 170 174 178 192 209 224 236 250 258 263 264 265 266 267 267 265 259 246 235 231 230 231 232 231 230 229 229 230 229 229 228 226 226 226 225 223 224 227 229 232 234 234 234 235 236 237 234 229 228 230 231 235 238 237 237 239 240 241 242 243 245 246 247 249 254 258 259
171 172 174 175 176 179 182 183 184 183 181 180 178 175 171 167 161 160 165 168 173 184 200 216 229 245 258 264 268 270 270 271 270 268 266 254 240 235 234 233 235 236 237 238 239 238 237 236 235 232 231 231 230 228 227 229 231 234 235 234 234 235 236 237 235 229 228 230 232 237 240 241 242 244 247 248 246 242 242 244 245 249 256 263 263
164 163 163 163 164 164 164 164 165 163 163 168 170 167 166 164 162 163 168 175 181 187 200 216 225 233 244 254 260 264 265 266 264 260 256 249 240 235 234 234 235 237 239 242 244 244 245 245 243 241 239 237 235 233 231 231 232 232 233 234 234 233 234 236 234 229 228 232 236 239 243 246 248 250 253 252 244 238 238 241 243 248 254 259 259
154 152 152 151 152 153 151 149 150 153 156 161 163 163 164 163 162 164 171 177 183 190 200 210 219 228 239 247 254 260 261 260 259 255 250 243 236 233 232 232 233 235 238 241 244 246 247 248 249 248 247 245 241 236 234 233 231 230 230 232 233 232 233 234 233 232 234 237 240 243 247 252 255 253 250 245 240 238 238 240 244 249 249 249 252
147 147 149 149 151 156 155 152 151 152 155 157 156 154 156 159 160 162 168 174 178 186 198 207 216 228 239 246 253 260 262 261 259 255 251 245 239 234 231 231 231 233 236 239 242 244 246 247 249 251 251 250 246 240 236 235 231 229 228 230 231 232 234 236 238 239 242 245 246 248 252 255 257 252 245 242 241 241 241 243 246 247 243 240 248
148 148 150 152 154 157 158 157 154 153 153 155 155 154 156 159 160 160 163 169 173 179 191 204 217 229 238 244 251 257 261 265 267 265 260 255 249 243 238 235 234 234 236 239 241 244 245 247 248 249 249 248 245 239 235 234 232 229 227 228 230 232 234 236 239 242 245 248 249 250 251 252 253 249 244 242 242 242 243 244 245 242 236 233 242
148 148 150 151 152 153 155 156 156 155 154 153 151 149 151 155 157 157 159 165 171 181 195 207 220 236 246 252 255 257 263 275 284 284 279 273 265 258 253 248 245 242 241 242 243 244 245 245 245 244 243 242 239 235 232 230 230 229 228 228 230 230 232 234 237 240 244 246 248 248 247 248 248 245 241 242 244 245 243 241 239 236 231 232 240
147 148 151 150 151 153 153 153 155 154 151 149 145 140 139 143 145 147 152 159 168 183 204 221 235 249 260 267 268 269 277 290 295 292 288 286 281 274 269 264 259 254 250 247 245 244 243 243 242 242 240 239 236 233 231 229 227 227 228 229 230 231 233 236 239 242 244 246 248 248 246 245 243 241 240 241 244 245 242 235 233 230 229 232 238
148 150 153 151 151 151 149 149 151 148 144 144 140 135 133 132 132 135 143 153 169 190 220 248 259 267 277 284 284 286 292 296 294 292 293 293 289 285 279 272 265 259 254 249 244 242 241 241 242 242 241 240 239 237 235 233 231 230 231 232 233 234 236 238 242 243 244 245 247 247 245 243 242 240 240 242 244 243 238 231 228 228 228 231 236
147 149 151 150 149 147 145 145 147 146 144 143 141 138 136 133 130 130 132 136 147 165 203 252 263 270 278 282 283 286 289 289 289 290 291 291 290 288 283 275 268 263 257 248 241 241 241 241 242 243 243 242 242 241 240 239 238 237 236 237 238 239 240 243 245 245 244 246 246 245 244 243 242 241 241 240 240 237 232 227 225 225 228 231 235
146 146 148 148 148 146 143 142 143 144 143 143 142 141 140 138 134 130 127 123 120 116 108 95 68 320 293 287 285 283 281 281 282 282 284 288 290 289 283 276 271 264 251 240 237 241 243 243 244 244 244 244 244 244 243 242 243 242 241 241 243 245 247 248 248 245 245 246 245 243 243 242 241 241 239 237 235 232 229 227 224 222 225 229 232
144 144 145 146 146 145 143 142 141 139 139 139 138 138 136 136 136 134 132 127 119 109 99 86 72 60 50 28 347 315 297 289 283 280 280 283 285 286 284 278 271 260 246 240 241 244 245 246 248 249 249 249 249 247 246 246 245 245 245 246 248 250 251 250 248 246 247 246 244 243 242 241 239 237 235 232 230 228 227 226 222 220 221 225 228
142 141 142 143 141 140 140 139 137 136 136 135 135 135 132 131 129 125 120 113 103 92 82 74 64 55 50 43 30 15 355 329 310 297 287 283 283 284 276 264 255 248 242 243 246 249 250 252 254 255 256 256 255 253 252 251 250 250 250 251 252 252 252 251 249 249 248 246 244 244 242 240 237 235 233 230 226 223 222 222 220 219 220 222 225
139 138 139 140 138 136 136 136 135 134 134 132 131 131 128 125 121 115 109 102 93 84 75 67 58 52 51 45 32 25 17 357 338 322 302 286 278 268 258 254 252 249 247 247 249 252 255 257 259 260 261 261 261 259 257 256 255 255 254 254 254 254 253 252 251 250 248 246 245 244 241 239 236 233 231 229 226 224 223 222 220 220 220 221 223
138 137 137 137 137 135 134 133 132 131 129 128 129 128 124 120 117 113 108 102 94 85 75 64 58 58 58 50 35 27 21 8 351 336 317 296 274 257 253 256 259 259 259 259 259 260 261 263 264 265 266 265 265 264 263 261 260 259 259 258 257 255 255 255 255 253 250 247 246 244 241 239 236 232 229 227 226 224 223 222 220 219 220 220 221
136 136 135 136 136 134 132 131 130 130 129 128 127 125 121 117 112 106 101 95 88 80 70 59 53 50 45 34 22 13 3 353 348 346 340 326 303 277 266 265 265 265 267 269 269 269 270 270 271 271 271 271 271 269 267 266 264 263 263 262 260 259 258 258 257 254 251 248 247 245 242 240 237 233 229 226 226 225 223 221 219 217 217 216 216
132 132 133 134 133 132 131 131 131 130 127 123 120 116 111 107 102 96 91 84 78 70 61 53 48 39 21 4 353 347 341 339 338 336 330 322 313 301 288 281 278 277 277 278 279 278 278 278 279 278 277 276 276 275 273 272 270 268 267 265 263 261 259 257 256 254 251 249 248 246 244 241 238 234 230 228 227 226 223 220 218 216 215 214 215
131 131 132 132 131 129 128 126 124 120 116 112 109 106 102 97 93 89 85 81 76 68 57 47 40 26 1 346 340 335 329 326 324 319 314 309 305 301 296 292 290 290 289 289 288 287 287 286 286 285 284 282 280 279 277 276 274 272 270 266 264 262 260 259 257 255 253 252 250 247 244 242 238 234 231 229 228 226 224 222 220 218 217 217 216
128 128 128 126 124 123 121 117 113 110 109 107 106 104 102 99 97 95 93 90 85 76 65 52 38 16 346 336 333 320 310 307 305 303 301 300 299 297 296 294 294 294 294 295 294 294 294 295 294 293 293 291 289 287 285 282 278 275 272 269 266 264 263 261 258 257 255 254 251 248 246 243 239 234 231 230 228 226 224 223 221 218 217 217 216
124 123 122 121 121 119 115 112 111 111 110 110 108 107 106 105 106 108 109 104 96 81 65 51 33 11 353 344 334 313 302 300 299 297 298 297 296 296 296 295 295 295 295 295 295 296 297 297 296 296 295 295 295 295 293 290 286 282 277 273 270 267 264 263 261 259 257 254 252 250 248 244 240 236 233 231 227 224 222 220 219 216 214 214 214
122 119 118 118 118 114 110 111 113 113 112 113 112 113 117 121 124 126 121 111 97 66 35 17 360 351 348 343 334 324 317 312 307 304 305 304 303 303 304 303 302 301 298 296 296 297 297 297 296 296 296 296 296 296 296 295 293 288 283 277 273 269 267 264 262 260 257 255 254 252 249 245 240 236 232 229 225 222 220 217 215 213 211 211 211
117 114 114 114 113 110 110 114 116 115 116 118 121 125 132 131 124 117 102 83 57 21 2 351 339 335 334 332 329 325 321 319 316 312 311 311 311 311 312 312 310 307 304 302 301 300 299 298 297 297 296 296 295 295 295 295 295 293 288 282 276 272 269 266 265 264 262 260 257 253 249 244 239 234 231 227 224 220 218 215 213 211 209 208 207
112 112 114 114 113 114 115 115 114 115 119 123 125 126 123 109 93 80 56 35 8 347 339 332 326 324 325 326 327 326 324 322 318 314 312 311 310 310 311 311 309 308 306 306 306 305 304 303 302 301 299 298 297 296 294 293 294 293 291 287 281 276 274 272 272 271 268 263 258 254 250 245 239 234 230 227 223 220 217 215 212 209 207 206 206
106 107 108 107 108 109 107 105 108 112 112 110 108 102 88 73 59 37 10 350 336 328 326 323 321 321 324 325 327 326 324 321 317 314 312 311 310 310 311 310 310 309 309 309 309 309 308 307 307 305 304 303 302 300 297 295 293 292 290 288 285 281 279 277 275 273 269 265 261 257 252 247 241 235 231 227 224 221 218 215 212 210 207 206 206
98 99 98 96 96 97 100 104 105 98 87 75 63 52 40 23 5 351 338 328 323 322 320 320 321 322 324 325 324 323 321 319 316 315 315 314 314 314 314 312 312 311 311 310 310 310 310 310 309 307 306 305 304 302 300 298 295 291 289 287 285 283 281 279 277 273 270 268 265 260 254 248 242 237 232 227 223 220 217 215 213 211 208 206 206
94 93 92 94 100 108 111 102 78 52 35 22 12 6 357 344 337 334 326 321 321 321 319 320 321 321 320 320 319 318 317 316 315 315 315 315 314 314 313 312 311 311 311 312 313 313 313 313 312 310 308 306 305 303 301 300 297 295 292 289 285 283 281 280 278 275 272 270 266 261 255 248 242 236 231 225 221 219 217 214 212 211 208 207 207
100 101 104 109 114 106 78 38 11 355 347 343 337 331 326 321 318 316 315 314 314 316 316 316 316 316 315 314 314 314 315 313 312 312 312 311 311 311 311 311 312 313 315 317 319 320 320 320 318 316 314 311 308 307 305 303 301 299 296 292 288 284 282 280 278 276 274 270 265 260 253 246 240 234 230 225 221 218 216 213 211 208 206 205 205
121 121 121 124 85 356 340 332 327 322 317 313 311 310 309 308 306 308 309 309 310 313 314 311 309 309 309 309 310 311 310 309 309 309 310 311 312 313 313 314 316 319 321 322 322 323 324 323 322 320 319 316 314 312 309 307 305 302 299 295 291 288 284 282 279 277 274 269 263 257 251 243 236 230 227 223 219 216 214 212 209 205 204 203 202
145 133 347 319 316 308 301 300 302 298 296 297 299 299 298 299 300 302 304 304 306 308 307 305 305 306 306 306 307 307 306 307 310 311 313 315 317 318 319 320 321 322 322 322 323 324 324 324 324 322 321 319 318 316 314 311 309 306 302 299 295 291 287 284 281 277 273 268 262 255 247 239 232 226 222 220 216 213 212 211 207 204 202 202 202